Location: Ravensburg
(47.7866°N, 9.6124°E)
Time: 08:29:23
(UTC+01:00)

CAS-6 - Visible Passes

Search period start: 11 March 2026 00:00
Search period end: 21 March 2026 00:00
Orbit: 599 x 620 km, 97.8° (Epoch: 10 March)

Date Brightness Start Highest point End Pass type
(mag) Time Alt. Az. Time Alt. Az. Time Alt. Az.
11 Mar ? 21:26:25 12° N 21:26:25 12° N 21:26:49 10° N visible
12 Mar ? 21:40:25 13° N 21:40:25 13° N 21:40:59 10° N visible
13 Mar ? 21:54:25 14° N 21:54:25 14° N 21:55:03 10° N visible
14 Mar ? 22:08:25 14° N 22:08:25 14° N 22:09:05 10° N visible
15 Mar ? 20:45:29 10° NNE 20:45:29 10° NNE 20:45:35 10° NNE visible
15 Mar ? 22:22:25 14° NNW 22:22:25 14° NNW 22:23:02 10° NNW visible
16 Mar ? 20:59:29 13° NNE 20:59:29 13° NNE 21:00:07 10° NNE visible
16 Mar ? 22:36:25 13° NNW 22:36:25 13° NNW 22:36:56 10° NNW visible
17 Mar ? 21:13:28 15° NNE 21:13:28 15° NNE 21:14:27 10° NNE visible
17 Mar ? 22:50:24 12° NNW 22:50:24 12° NNW 22:50:45 10° NNW visible
18 Mar ? 21:27:27 17° NNE 21:27:27 17° NNE 21:28:39 10° N visible
18 Mar ? 23:04:24 10° NW 23:04:24 10° NW 23:04:28 10° NW visible
19 Mar ? 21:41:27 19° N 21:41:27 19° N 21:42:46 10° N visible
20 Mar ? 21:55:25 20° N 21:55:25 20° N 21:56:49 10° N visible
